RYR50EY LCPH-EIDW

Flight info

Callsign RYR50EY
Flight time N/A
Altitude 36000
Route GENOS DCT PEDER DCT LUTIG DCT EXELA UN127 RIKSO DCT FSK DCT DISOR DCT LONTA UL608 DOLEV DCT YUYUH DCT EVAXI DCT ERKIR/N0440F380 DCT BABEG DCT LIRSU DCT DENUT L610 KOPUL Q60 OKSAW DCT TEWXI DCT LANON L18 ABLIN ABLIN4L
Aircraft B738/M-SDE2E3FGHIRWXY/LB1

Departure

Time 2026-04-15 13:55
Airport Paphos International Airport (LCPH)

Arrival

Time N/A
Airport Dublin Airport (EIDW)
Time Latitude Longitude Altitude Speed Heading
2026-04-15 13:39 34.71454 32.48608 45 ft 0 kts 19°
2026-04-15 13:51 34.71455 32.48616 45 ft 1 kts 84°
2026-04-15 13:51 34.71441 32.48651 42 ft 9 kts 115°
2026-04-15 13:51 34.71424 32.48698 45 ft 5 kts 101°
2026-04-15 13:51 34.71435 32.48747 45 ft 10 kts 67°
2026-04-15 13:52 34.71469 32.48847 45 ft 14 kts 67°
2026-04-15 13:52 34.71508 32.48949 45 ft 13 kts 62°
2026-04-15 13:52 34.71602 32.49006 46 ft 15 kts 19°
2026-04-15 13:52 34.71622 32.49126 44 ft 21 kts 110°
2026-04-15 13:53 34.71557 32.49334 43 ft 31 kts 111°
2026-04-15 13:53 34.71475 32.49609 43 ft 36 kts 110°
2026-04-15 13:53 34.71378 32.49786 43 ft 19 kts 139°
2026-04-15 13:53 34.71411 32.49837 42 ft 12 kts 291°
2026-04-15 13:54 34.71448 32.49698 42 ft 36 kts 290°
2026-04-15 13:54 34.71618 32.49138 45 ft 103 kts 290°
2026-04-15 13:54 34.71937 32.48093 45 ft 159 kts 290°
2026-04-15 13:54 34.72363 32.46703 388 ft 181 kts 289°
2026-04-15 13:55 34.72631 32.45220 1171 ft 183 kts 265°
2026-04-15 13:55 34.72281 32.43703 1875 ft 189 kts 250°
2026-04-15 13:55 34.71836 32.42152 2438 ft 205 kts 251°
2026-04-15 13:55 34.71362 32.40442 2541 ft 231 kts 251°
2026-04-15 13:56 34.70852 32.38497 2822 ft 249 kts 252°
2026-04-15 13:56 34.70345 32.36441 3330 ft 257 kts 253°
2026-04-15 13:56 34.69835 32.34270 3658 ft 276 kts 253°
2026-04-15 13:56 34.69319 32.31989 4439 ft 282 kts 255°
2026-04-15 13:57 34.68819 32.29727 5481 ft 277 kts 255°
2026-04-15 13:57 34.68321 32.27440 6215 ft 281 kts 254°
2026-04-15 13:57 34.67819 32.25139 7020 ft 283 kts 254°
2026-04-15 13:57 34.67323 32.22836 7713 ft 288 kts 255°
2026-04-15 13:58 34.67056 32.20419 8462 ft 291 kts 270°
2026-04-15 13:58 34.67147 32.17922 9208 ft 294 kts 272°
2026-04-15 13:58 34.67259 32.15430 9909 ft 297 kts 272°
2026-04-15 13:58 34.67359 32.12893 10451 ft 308 kts 271°
2026-04-15 13:59 34.67444 32.10197 10623 ft 331 kts 271°
2026-04-15 13:59 34.67521 32.07353 10862 ft 350 kts 271°
2026-04-15 13:59 34.67590 32.04318 11361 ft 359 kts 270°
2026-04-15 13:59 34.67665 32.01316 12140 ft 360 kts 271°
2026-04-15 14:00 34.67740 31.98283 12879 ft 359 kts 271°
2026-04-15 14:00 34.67805 31.95231 13529 ft 364 kts 270°
2026-04-15 14:00 34.67956 31.92160 14274 ft 365 kts 278°
2026-04-15 14:00 34.68573 31.89169 14957 ft 368 kts 288°
2026-04-15 14:01 34.70946 31.83609 16266 ft 373 kts 298°
2026-04-15 14:01 34.72285 31.80896 16889 ft 375 kts 299°
2026-04-15 14:01 34.73645 31.78171 17491 ft 378 kts 299°
2026-04-15 14:02 34.75007 31.75435 18095 ft 380 kts 298°
2026-04-15 14:02 34.76373 31.72671 18675 ft 382 kts 298°
2026-04-15 14:02 34.77741 31.69888 19266 ft 384 kts 298°
2026-04-15 14:02 34.79112 31.67082 19785 ft 387 kts 298°
2026-04-15 14:03 34.80490 31.64251 20296 ft 390 kts 299°
2026-04-15 14:03 34.81872 31.61405 20809 ft 393 kts 298°
2026-04-15 14:03 34.83265 31.58531 21323 ft 395 kts 299°
2026-04-15 14:03 34.84665 31.55640 21803 ft 397 kts 299°
2026-04-15 14:04 34.86072 31.52730 22261 ft 400 kts 299°
2026-04-15 14:04 34.87487 31.49803 22705 ft 403 kts 299°
2026-04-15 14:04 34.88914 31.46848 23128 ft 405 kts 299°
2026-04-15 14:04 34.90344 31.43886 23528 ft 408 kts 299°
2026-04-15 14:05 34.91785 31.40897 23941 ft 410 kts 299°
2026-04-15 14:05 34.93234 31.37891 24341 ft 412 kts 299°
2026-04-15 14:05 34.94692 31.34862 24723 ft 415 kts 299°
2026-04-15 14:05 34.96155 31.31821 25115 ft 417 kts 299°
2026-04-15 14:06 34.97625 31.28762 25510 ft 419 kts 298°
2026-04-15 14:06 34.99099 31.25692 25872 ft 421 kts 298°
2026-04-15 14:06 35.00584 31.22596 26221 ft 423 kts 298°
2026-04-15 14:06 35.02076 31.19485 26566 ft 426 kts 298°
2026-04-15 14:07 35.03573 31.16360 26917 ft 427 kts 298°
2026-04-15 14:07 35.05074 31.13222 27246 ft 429 kts 298°
2026-04-15 14:07 35.06565 31.10102 27531 ft 432 kts 298°
2026-04-15 14:07 35.08080 31.06927 27852 ft 433 kts 298°
2026-04-15 14:08 35.09619 31.03702 28181 ft 435 kts 298°
2026-04-15 14:08 35.11126 31.00542 28451 ft 437 kts 297°
2026-04-15 14:08 35.12658 30.97326 28723 ft 439 kts 297°
2026-04-15 14:08 35.14194 30.94096 28995 ft 441 kts 297°
2026-04-15 14:09 35.15735 30.90852 29282 ft 442 kts 297°
2026-04-15 14:09 35.17279 30.87601 29564 ft 443 kts 297°
2026-04-15 14:09 35.18775 30.84312 29941 ft 441 kts 295°
2026-04-15 14:09 35.20170 30.80989 30324 ft 439 kts 294°
2026-04-15 14:10 35.21523 30.77647 30689 ft 437 kts 293°
2026-04-15 14:10 35.22858 30.74315 31031 ft 436 kts 293°
2026-04-15 14:10 35.24195 30.70987 31342 ft 436 kts 293°
2026-04-15 14:10 35.25539 30.67660 31691 ft 435 kts 293°
2026-04-15 14:11 35.26883 30.64353 32042 ft 433 kts 293°
2026-04-15 14:11 35.28226 30.61056 32348 ft 432 kts 293°
2026-04-15 14:11 35.29566 30.57765 32654 ft 431 kts 293°
2026-04-15 14:11 35.30902 30.54484 32960 ft 430 kts 293°
2026-04-15 14:12 35.32235 30.51209 33261 ft 429 kts 293°
2026-04-15 14:12 35.33549 30.47978 33560 ft 428 kts 293°
2026-04-15 14:12 35.34873 30.44719 33844 ft 427 kts 292°
2026-04-15 14:12 35.36191 30.41469 34127 ft 426 kts 292°
2026-04-15 14:13 35.37508 30.38219 34400 ft 425 kts 292°
2026-04-15 14:13 35.38816 30.34988 34682 ft 423 kts 292°
2026-04-15 14:13 35.40122 30.31762 34937 ft 422 kts 292°
2026-04-15 14:13 35.41426 30.28534 35168 ft 422 kts 292°
2026-04-15 14:14 35.42725 30.25316 35415 ft 421 kts 292°
2026-04-15 14:14 35.44021 30.22104 35657 ft 420 kts 292°
2026-04-15 14:14 35.45312 30.18901 35904 ft 418 kts 292°
2026-04-15 14:14 35.46601 30.15700 36053 ft 419 kts 291°
2026-04-15 14:15 35.47895 30.12478 36037 ft 421 kts 291°
2026-04-15 14:15 35.50477 30.06050 36049 ft 417 kts 291°
2026-04-15 14:16 35.53421 29.99913 36053 ft 422 kts 303°
2026-04-15 14:16 35.57652 29.94848 36063 ft 427 kts 314°
2026-04-15 14:17 35.62201 29.90144 36051 ft 427 kts 314°
2026-04-15 14:17 35.66731 29.85421 36051 ft 427 kts 314°
2026-04-15 14:18 35.71263 29.80646 36047 ft 429 kts 314°
2026-04-15 14:18 35.75802 29.75843 36058 ft 431 kts 314°
2026-04-15 14:19 35.80337 29.71035 36054 ft 433 kts 314°